Berens Landing, Northwest Territories

9:58 AM MST on January 21, 2017 (GMT -0700)
Fort Simpson

Weather History for CZFS - December, 2011

Change the Weather History Date:

Saturday, December 24, 2011

  Actual Average (CYFS) Record (CYFS)
Temperature  
Mean Temperature -1 °F -  
Max Temperature 7 °F 0 °F 53 °F (1999)
Min Temperature -9 °F -11 °F -29 °F (2008)
Degree Days  
Heating Degree Days 66    
Moisture  
Dew Point -5 °F    
Average Humidity 83    
Maximum Humidity 88    
Minimum Humidity 74    
Precipitation  
Precipitation 0.00 in - - ()
Sea Level Pressure  
Sea Level Pressure 29.87 in    
Wind  
Wind Speed 6 mph ()    
Max Wind Speed 12 mph    
Max Gust Speed -    
Averages and records for this station are not official NWS values.
T = Trace of Precipitation, MM = Missing Value Source: Averaged Metar Reports

Daily Weather History Graph

Daily Weather History Graph

Search for Another Location

Airport or City:

Trip Planner

Search our weather history database for the weather conditions in past years. The results will help you decide how hot, cold, wet, or windy it might be!

Date:

Astronomy

Dec. 24, 2011 Rise Set
Actual Time 10:26 AM MST 3:42 PM MST
Civil Twilight 9:22 AM MST 4:46 PM MST
Nautical Twilight 8:20 AM MST 5:48 PM MST
Astronomical Twilight 7:26 AM MST 6:42 PM MST
Moon 10:17 AM MST (12/24) 4:05 PM MST (12/24)
Length of Visible Light 7h 24m
Length of Day
5h 15m
New Moon, 0% of the Moon is Illuminated
Dec 24
New Moon
Dec 31
First Quarter
Jan 9
Full
Jan 16
Last Quarter
Jan 23
New

Hourly Weather History & Observations

Time (MST) Temp. Windchill Dew Point Humidity Pressure Visibility Wind Dir Wind Speed Gust Speed Precip Events Conditions
12:00 AM 6.6 °F -5.0 °F 3.7 °F 88% 29.67 in - NNW 6.9 mph - N/A   Unknown
1:00 AM 6.6 °F -8.8 °F 2.7 °F 84% 29.70 in - North 11.5 mph - N/A   Unknown
2:00 AM 6.4 °F -7.3 °F 2.7 °F 84% 29.73 in - NNW 9.2 mph - N/A   Unknown
3:00 AM 6.3 °F -9.2 °F 2.1 °F 83% 29.76 in - NNW 11.5 mph - N/A   Unknown
4:00 AM 5.5 °F -9.3 °F 1.8 °F 84% 29.78 in - NNW 10.4 mph - N/A   Unknown
5:00 AM 5 °F - 1 °F 76% 29.81 in - NNW 9.2 mph - -  
5:00 AM 5.4 °F -8.6 °F 1.0 °F 82% 29.81 in - NNW 9.2 mph - N/A   Unknown
6:00 AM 4.8 °F -9.3 °F 0.7 °F 83% 29.83 in - NNW 9.2 mph - N/A   Unknown
7:00 AM 3.6 °F -9.8 °F -0.6 °F 83% 29.85 in - NNW 8.1 mph - N/A   Unknown
8:00 AM 1.6 °F -11.0 °F -2.4 °F 83% 29.87 in - NNW 6.9 mph - N/A   Unknown
9:00 AM 0.1 °F -11.4 °F -3.8 °F 83% 29.90 in - WNW 5.8 mph - N/A   Unknown
10:00 AM -2.0 °F -13.9 °F -5.4 °F 85% 29.91 in - NW 5.8 mph - N/A   Unknown
11:00 AM -4 °F - -8 °F 74% 29.93 in - NNW 4.6 mph - -  
11:00 AM -4.4 °F -15.0 °F -8.0 °F 84% 29.93 in - NNW 4.6 mph - N/A   Unknown
12:00 PM -2.7 °F -11.0 °F -7.1 °F 82% 29.95 in - NNW 3.5 mph - N/A   Unknown
1:00 PM -1.1 °F -16.6 °F -5.8 °F 81% 29.95 in - NNW 9.2 mph - N/A   Unknown
2:00 PM -0.4 °F -14.7 °F -5.8 °F 78% 29.95 in - NNW 8.1 mph - N/A   Unknown
3:00 PM -1.3 °F -13.1 °F -6.3 °F 79% 29.96 in - NW 5.8 mph - N/A   Unknown
4:00 PM -3.8 °F -12.2 °F -7.6 °F 84% 29.94 in - WNW 3.5 mph - N/A   Unknown
5:00 PM -5 °F - -8 °F 77% 29.95 in - WNW 2.3 mph - -  
5:00 PM -5.3 °F - -8.5 °F 86% 29.95 in - WNW 2.3 mph - N/A   Unknown
6:00 PM -8.0 °F - -11.4 °F 85% 29.94 in - North 1.2 mph - N/A   Unknown
7:00 PM -9.4 °F - -12.6 °F 86% 29.92 in - Calm Calm - N/A   Unknown
8:00 PM -8.7 °F - -12.3 °F 84% 29.90 in - NNW 2.3 mph - N/A   Unknown
9:00 PM -7.4 °F - -10.8 °F 85% 29.91 in - North 1.2 mph - N/A   Unknown
10:00 PM -6.5 °F - -9.9 °F 85% 29.87 in - North 2.3 mph - N/A   Unknown
11:00 PM -5 °F - -8 °F 77% 29.88 in - North 3.5 mph - -  
11:00 PM -5.3 °F -13.8 °F -8.5 °F 86% 29.88 in - North 3.5 mph - N/A   Unknown